RH
15 15 15 12 11 10 9 10 10 10 11 10 11 10 11 13 12 13 14 14 16 17 19 20 20 21 23 28 33 33 39 48 57 67 78 89 93 94 104 100 96 107 97 79 79 82 92 77 36 32 40 29 32 38 35 33 27 33 49 44 29 27 30
16 16 16 13 12 12 10 11 11 11 12 11 12 12 12 14 14 14 15 16 17 18 20 22 22 23 26 29 32 33 38 43 45 57 67 77 90 94 96 100 99 104 103 92 81 78 86 78 48 37 40 31 31 42 41 33 33 52 67 52 32 28 28
17 17 17 15 14 13 12 13 12 12 13 13 13 13 13 15 15 16 17 17 18 19 21 24 24 25 27 29 31 30 35 42 42 52 68 75 85 93 93 97 102 102 104 104 89 79 84 77 50 37 38 32 36 50 55 55 62 68 67 60 53 44 31
18 18 18 16 15 14 14 14 14 14 15 15 15 15 15 16 16 17 19 19 20 21 23 25 25 26 27 25 29 30 31 42 49 52 64 71 75 85 91 91 93 94 98 103 95 82 80 72 49 37 38 43 55 67 72 78 79 72 74 84 86 75 56
18 18 18 17 16 16 15 15 15 15 16 16 17 17 16 18 18 18 20 20 22 23 24 26 25 25 27 25 26 32 34 41 49 50 55 62 64 67 71 69 68 71 78 92 96 84 72 62 49 40 42 60 82 91 88 88 86 83 93 101 96 94 83
18 18 18 18 17 16 16 17 17 16 17 17 18 18 18 19 20 20 21 22 23 25 23 25 26 23 25 27 26 31 38 41 46 49 50 53 54 53 55 54 50 51 59 74 82 76 66 57 50 49 57 76 95 102 98 96 97 96 100 101 96 100 93
18 18 18 18 17 17 17 18 18 18 19 19 19 20 20 21 22 21 22 23 22 24 24 22 25 25 25 30 33 33 38 42 45 49 49 49 50 51 52 51 47 47 51 60 68 72 71 65 57 62 79 92 98 102 100 100 101 99 100 102 99 100 97
17 17 18 18 17 18 18 18 19 19 20 21 21 22 23 22 25 23 22 24 21 21 24 22 24 28 30 33 37 37 38 41 44 48 49 49 50 52 52 50 50 50 49 57 69 71 73 79 77 79 93 101 99 100 100 100 101 99 100 102 98 100 100
17 17 17 18 17 18 18 18 20 21 22 24 23 24 24 23 23 23 21 22 22 20 22 25 26 29 32 35 37 38 39 39 42 46 48 49 50 51 52 51 51 51 51 59 68 63 67 87 96 95 100 101 99 102 101 99 101 100 100 101 100 100 95
17 17 17 18 17 16 17 17 20 23 23 25 26 25 27 25 23 26 25 24 27 27 24 26 30 31 33 35 36 38 39 39 40 42 44 47 50 51 53 53 51 50 50 56 61 59 65 88 100 97 98 101 101 102 101 99 100 100 99 101 101 96 84
16 16 16 17 16 15 17 17 20 24 23 24 27 29 32 33 31 31 31 32 36 37 32 29 31 32 33 35 36 37 39 38 38 40 41 43 47 49 51 53 53 53 51 51 55 54 61 81 91 87 90 100 101 99 100 101 100 100 100 99 101 99 80
15 16 16 16 15 15 15 16 19 24 25 24 27 30 32 34 35 35 34 36 40 40 36 34 33 33 32 34 36 37 38 39 38 39 40 40 43 45 47 49 51 53 54 52 53 53 53 61 71 75 76 78 82 90 99 101 99 100 102 99 101 103 86
15 16 16 15 16 15 14 15 18 22 25 26 26 29 32 32 33 35 35 35 37 37 35 34 34 34 32 32 36 37 38 39 40 41 41 40 40 41 41 44 47 49 52 53 53 55 51 49 56 65 58 50 62 86 99 101 100 99 101 101 99 96 86
14 15 15 15 16 16 13 14 18 21 23 26 27 29 32 32 31 32 33 32 33 35 34 33 34 35 33 32 35 37 38 40 42 42 43 41 40 39 38 40 42 44 48 51 53 56 55 51 52 53 49 54 77 99 101 99 100 99 100 101 97 91 83
14 14 14 16 16 15 14 13 17 21 22 24 28 30 31 31 30 30 30 29 30 32 32 33 35 35 34 33 33 35 38 43 45 45 45 43 41 40 39 38 40 41 43 47 50 52 53 53 54 58 67 82 97 101 99 99 100 101 101 99 95 88 75
15 14 14 15 16 15 14 13 15 20 22 23 27 30 31 30 30 30 28 27 28 29 30 31 34 35 36 35 34 35 38 43 48 49 48 47 45 43 42 41 40 41 42 44 48 53 61 67 73 82 93 100 100 100 104 105 99 95 91 86 82 74 59
15 16 15 15 17 17 15 13 15 19 21 23 25 29 30 30 30 30 28 27 28 29 29 30 30 33 35 35 35 37 39 44 50 52 52 50 49 48 46 43 42 43 43 45 48 58 70 77 79 83 89 93 96 98 97 91 79 70 65 65 65 61 57
15 15 16 16 16 18 16 14 15 18 21 22 25 28 29 29 29 29 28 28 30 30 31 32 31 33 35 35 36 39 42 45 50 54 55 55 56 56 52 47 46 48 48 48 48 50 55 58 57 59 62 63 67 70 68 63 60 57 56 58 58 59 64
16 15 16 17 16 17 18 16 16 18 22 23 24 27 29 29 30 30 30 31 33 33 33 33 33 34 35 36 37 39 43 47 51 55 58 61 65 66 60 55 57 58 55 54 53 50 48 48 47 47 49 48 47 49 53 54 58 60 61 62 57 58 72
19 16 15 16 17 16 17 18 18 19 22 23 24 26 29 31 31 32 34 35 35 35 35 35 35 36 37 39 41 42 44 47 51 56 60 66 72 72 68 71 78 78 71 67 65 60 55 54 52 50 51 50 46 47 50 53 58 60 63 66 61 55 67
19 18 15 15 16 16 16 18 19 20 21 23 25 26 29 31 32 33 37 39 38 38 38 37 37 37 38 41 44 46 49 49 52 58 64 71 79 83 85 93 100 98 91 82 74 69 66 64 61 58 57 56 53 51 51 53 58 61 61 65 64 59 61
19 19 17 15 15 16 16 18 19 20 21 22 24 27 28 30 32 34 39 42 42 42 42 43 43 43 44 46 47 49 52 54 57 63 67 70 75 81 88 94 96 95 92 85 77 74 73 72 69 66 63 62 59 57 56 55 57 60 61 62 62 62 61
20 19 17 16 15 15 16 17 18 20 21 23 25 27 29 32 35 39 44 49 50 52 53 54 56 58 59 60 60 60 60 61 62 63 64 65 68 73 79 86 91 94 95 92 88 83 77 75 73 70 68 65 63 62 62 61 60 61 63 64 62 62 62
19 19 18 16 16 15 16 18 20 21 23 26 30 34 37 41 45 48 53 56 58 59 61 64 66 69 71 72 73 74 73 72 72 70 68 69 72 77 84 90 96 100 102 102 101 94 85 82 80 77 72 69 67 67 66 66 66 64 63 65 65 62 61
19 19 18 18 18 18 18 20 23 27 31 35 40 43 44 45 47 48 51 55 59 62 64 68 71 72 74 76 77 79 79 79 79 79 78 79 82 86 92 96 99 102 103 104 105 102 96 91 87 84 80 75 71 71 68 67 70 68 65 66 66 63 61
19 19 19 20 20 21 22 26 30 35 39 42 43 44 44 43 43 45 48 51 55 57 59 61 62 63 66 69 70 72 74 75 76 78 81 85 88 92 98 101 103 104 103 102 102 104 103 99 92 91 91 87 80 77 74 71 71 70 68 68 69 67 64
20 20 21 22 23 25 30 34 37 38 39 40 43 46 48 50 51 55 59 61 63 66 68 71 71 70 71 72 72 74 77 77 77 79 81 84 88 94 100 104 104 103 102 101 101 102 103 102 98 98 100 99 94 88 83 78 74 72 72 73 74 73 69
21 21 24 26 29 34 38 37 36 36 40 45 49 52 55 58 63 68 72 74 78 83 86 87 86 86 88 90 91 93 97 97 96 95 93 92 93 96 100 103 103 102 101 102 104 103 102 101 100 100 102 104 103 98 92 87 82 76 74 77 79 78 74
22 24 29 33 36 40 42 39 36 39 45 49 53 58 62 66 73 80 83 85 90 94 93 90 89 90 94 99 102 105 106 106 105 105 104 103 101 101 100 101 102 101 101 103 106 105 102 100 100 100 101 103 105 102 98 95 90 83 78 80 83 82 79
26 30 35 38 38 38 39 39 40 44 48 52 56 62 68 71 77 82 85 87 93 96 94 92 93 95 98 102 105 107 106 106 106 107 107 105 104 104 103 102 101 101 101 104 107 106 102 101 100 100 100 102 104 104 103 102 98 90 84 84 85 85 82
32 35 37 37 37 37 37 40 45 51 55 60 64 68 71 73 76 78 81 85 92 95 95 97 100 102 103 106 107 106 107 108 108 108 107 106 104 104 104 103 102 101 101 102 105 106 104 102 100 100 100 101 103 104 105 106 104 99 92 87 87 88 85
32 32 32 33 35 38 41 45 51 55 58 61 64 67 70 71 70 71 76 84 92 96 98 102 106 106 105 107 108 108 109 109 107 106 106 105 103 103 103 103 103 103 101 102 104 106 106 104 102 101 100 100 101 102 104 106 107 107 102 95 90 89 87
28 28 30 33 37 42 47 50 52 53 55 58 61 65 68 67 64 66 73 83 92 97 100 104 107 107 107 109 109 109 110 109 106 106 106 105 104 104 103 102 102 101 101 101 102 104 106 105 103 102 100 100 100 100 101 103 105 106 107 104 98 92 88
24 28 33 39 43 48 51 52 51 51 53 55 58 63 67 68 66 66 72 81 91 98 103 106 107 107 108 109 109 107 108 108 107 106 105 105 105 106 106 104 102 101 100 100 101 103 105 104 102 102 101 100 100 100 100 101 102 101 102 104 104 100 94
26 31 36 41 44 46 47 47 47 48 50 53 59 65 70 73 74 75 79 86 94 101 105 107 108 107 107 108 107 105 104 105 106 105 105 104 103 104 105 106 105 103 101 100 100 102 104 103 101 100 101 100 100 100 100 100 101 101 101 102 106 106 101
34 36 37 39 41 43 43 43 45 47 50 54 59 64 69 75 80 84 88 91 94 99 103 106 107 107 106 105 105 104 104 104 105 106 106 105 103 102 103 104 105 104 103 102 102 102 103 104 101 99 100 101 100 100 101 100 100 101 101 102 104 106 105
Wind_Speed
27 27 27 27 27 27 27 27 27 27 28 28 28 28 29 30 30 30 31 31 31 30 30 31 31 30 30 29 30 30 28 28 27 27 28 27 29 28 25 27 28 31 44 48 43 44 41 40 49 49 43 45 45 41 40 40 40 38 38 41 41 39 36
26 27 27 27 27 27 27 28 27 27 29 29 29 29 29 30 31 31 31 31 31 30 30 31 31 30 29 28 29 29 28 29 29 29 31 31 30 32 32 31 31 32 37 45 47 46 41 40 46 49 46 45 44 40 39 40 39 36 36 39 40 38 36
27 27 27 28 28 28 28 28 28 28 29 30 30 30 30 30 31 32 32 32 32 31 31 32 32 30 29 28 28 29 28 28 31 31 31 33 33 34 37 36 35 35 35 40 46 45 41 41 46 48 46 44 41 38 37 37 35 34 36 38 37 37 37
27 27 28 28 28 28 28 28 28 28 29 30 30 31 31 31 31 32 32 33 32 32 32 32 32 30 28 29 28 28 29 29 31 33 33 34 36 35 38 39 39 39 37 37 41 43 42 43 47 47 44 41 37 34 34 33 33 34 34 32 31 33 37
27 28 28 28 29 29 28 28 28 28 29 30 30 31 32 32 32 33 33 33 33 32 32 32 32 31 29 29 29 29 30 31 31 33 34 35 37 37 39 40 40 41 40 37 38 41 42 43 46 46 42 37 31 30 31 31 32 31 28 27 28 28 33
28 28 28 28 29 29 29 28 28 29 29 31 31 31 32 32 33 33 33 34 33 32 32 32 32 32 30 29 30 30 30 32 33 34 35 36 38 38 39 41 41 40 40 38 38 39 42 43 43 42 39 32 26 27 29 29 30 28 23 25 28 27 31
28 28 28 28 28 29 29 28 28 29 30 31 32 32 33 33 33 34 34 34 34 33 33 33 31 31 31 30 31 31 31 33 34 35 36 37 38 38 39 41 41 40 39 39 38 39 40 41 39 36 33 28 23 23 24 25 28 29 25 26 28 27 30
29 28 27 28 29 29 29 29 28 28 30 31 32 32 33 34 34 35 35 35 35 35 34 34 33 32 32 32 32 32 32 33 34 36 37 37 37 37 38 39 40 40 39 38 37 38 38 36 35 32 28 25 22 22 23 23 26 29 27 28 30 27 28
29 29 28 27 28 29 29 29 28 28 29 31 32 33 33 34 35 36 37 37 37 36 35 35 35 34 34 33 32 32 32 32 32 34 36 37 36 36 37 37 38 38 39 38 37 38 36 32 30 28 26 24 22 23 26 26 27 28 26 27 31 29 28
28 29 29 28 28 29 30 30 28 28 29 31 32 34 35 36 37 37 38 40 39 38 38 37 37 37 36 35 33 32 32 32 31 32 34 35 35 35 35 36 37 37 37 37 37 38 35 30 28 27 26 25 24 25 27 27 26 26 26 28 31 30 30
29 28 29 29 29 30 30 30 29 28 29 30 31 33 34 36 37 38 38 39 40 40 40 39 39 38 38 37 35 33 32 32 32 31 32 33 34 34 34 35 36 37 37 36 37 37 35 31 30 29 27 26 26 27 28 27 26 26 27 27 27 30 35
29 29 29 29 30 30 31 30 28 28 29 30 29 30 32 34 36 38 38 39 40 41 41 41 40 40 39 38 37 35 33 32 32 31 32 33 34 34 34 34 35 36 36 35 36 37 37 35 34 32 30 30 31 30 29 28 27 25 24 24 25 32 41
30 30 30 30 30 31 32 31 29 28 29 29 30 29 31 34 36 38 39 40 40 41 42 42 41 41 40 39 38 38 36 34 33 32 32 33 34 36 35 34 34 34 35 35 35 37 38 37 35 35 35 33 30 29 29 27 26 24 23 26 32 41 47
30 30 30 31 31 31 32 31 30 30 29 30 30 30 31 34 37 38 40 41 42 42 42 42 41 41 41 40 39 39 38 36 34 33 33 34 35 36 36 35 35 34 34 34 34 36 37 36 34 35 35 30 25 25 26 27 27 28 32 38 44 48 50
32 32 31 32 32 32 32 32 32 31 30 31 31 31 32 35 37 39 41 42 43 43 43 42 42 42 42 42 41 39 38 37 36 35 36 36 36 37 37 37 36 35 34 34 34 34 36 35 33 31 30 27 25 26 27 30 33 37 41 45 46 45 46
33 33 33 33 34 34 33 31 32 32 31 32 32 32 34 36 38 40 42 43 43 44 44 44 43 44 44 44 43 40 38 38 37 37 38 38 37 37 37 38 37 35 35 35 34 34 34 34 33 31 30 30 29 30 33 37 40 43 43 41 39 41 44
34 35 35 34 34 36 35 33 32 33 33 32 33 35 37 38 40 41 42 43 43 43 45 45 45 45 46 46 44 42 40 38 38 39 39 40 39 38 38 39 37 36 36 36 34 33 33 33 33 33 33 32 32 34 38 41 42 42 41 38 37 40 40
35 35 36 36 35 36 37 35 32 33 34 33 34 36 38 40 42 43 43 43 44 44 45 46 46 46 47 47 45 43 41 39 39 39 40 40 40 41 41 40 37 37 38 38 37 35 34 34 34 34 33 33 33 34 36 38 38 36 35 35 36 37 35
36 37 37 37 37 37 38 37 35 34 34 34 34 36 38 40 42 43 44 44 44 45 46 46 46 45 46 47 46 44 42 40 39 39 40 39 39 42 44 42 38 37 38 39 40 39 38 37 37 35 35 34 32 31 30 32 34 33 31 32 34 33 30
37 38 38 38 39 38 38 38 37 34 34 34 34 34 36 39 41 42 43 43 44 46 46 46 46 45 45 45 45 44 43 42 40 40 39 39 39 42 44 41 38 37 38 39 42 43 42 42 41 38 37 36 34 32 29 29 30 30 30 30 32 32 29
37 39 39 38 39 39 38 38 38 36 35 34 34 34 35 38 40 41 42 43 44 45 46 46 46 45 44 44 45 45 44 44 42 40 39 40 40 41 40 36 35 38 39 41 43 44 44 45 44 42 41 39 37 35 32 29 27 28 29 29 30 31 31
37 39 40 39 39 39 39 38 38 38 36 35 35 35 36 38 39 40 41 43 45 46 46 47 47 46 45 44 45 45 44 44 43 41 41 42 42 41 39 38 39 41 42 43 43 43 44 45 45 43 42 40 38 37 35 31 28 27 28 29 29 30 31
38 39 40 41 40 40 40 40 40 39 39 38 37 37 38 39 40 40 41 43 46 47 47 48 48 48 47 45 45 44 43 43 42 43 44 44 43 42 41 40 41 42 42 42 42 42 44 45 44 42 41 39 38 36 35 32 30 28 27 28 29 30 31
39 39 41 42 42 41 40 41 41 41 40 40 39 39 39 40 40 40 41 43 46 47 48 48 48 47 47 46 45 44 43 43 42 42 43 43 42 41 39 39 40 40 40 41 42 42 43 44 43 41 39 37 35 35 34 33 31 29 28 27 28 29 30
39 40 41 43 44 43 41 40 41 41 41 40 40 41 41 41 41 42 42 43 45 46 46 47 47 46 46 46 45 45 44 44 44 43 42 41 40 39 38 37 37 37 36 37 38 39 40 41 41 39 38 35 33 32 33 33 32 30 28 27 26 27 29
40 41 42 43 43 44 43 41 40 40 41 41 42 43 44 43 43 43 43 43 44 45 45 46 46 46 46 45 44 43 43 43 42 40 40 39 38 38 38 36 35 34 33 33 34 35 37 37 36 37 38 36 32 31 31 32 31 30 29 27 26 26 28
41 41 42 43 44 45 45 43 42 42 42 43 43 44 44 43 43 42 41 42 42 42 43 44 45 45 45 44 43 42 41 40 39 37 37 36 36 35 35 34 33 32 31 31 31 33 35 34 33 35 38 37 33 30 29 30 30 29 29 28 26 25 27
41 41 42 43 45 46 47 46 44 44 44 43 43 42 42 41 40 39 39 38 38 39 39 40 41 42 41 40 40 40 39 37 36 35 34 34 33 34 34 33 32 31 30 30 30 31 32 31 30 33 37 38 35 31 29 28 28 29 29 28 26 26 27
40 40 42 44 45 47 49 49 47 44 43 42 41 39 39 38 37 36 35 35 34 35 37 38 38 38 37 36 36 36 34 32 30 29 29 29 29 30 30 31 31 30 30 29 28 28 29 29 28 30 34 36 35 32 29 27 26 27 28 27 27 27 27
39 40 41 44 45 45 47 49 48 46 44 41 39 37 35 35 33 32 32 32 30 31 34 35 36 36 35 35 34 32 31 31 29 28 27 27 26 26 26 27 29 30 30 30 29 27 27 27 27 28 30 33 35 33 30 27 26 26 27 27 28 28 27
40 40 41 44 46 46 47 47 46 44 41 39 37 35 33 32 31 30 29 28 27 29 32 33 34 35 34 33 32 31 31 31 31 30 28 26 26 26 25 25 25 26 27 30 31 29 27 27 27 27 27 30 32 32 30 28 27 26 27 27 28 28 28
41 42 42 43 45 46 45 44 41 39 37 35 33 31 30 30 30 29 28 26 26 29 31 31 32 33 33 32 31 32 32 31 30 29 28 26 25 25 25 24 24 24 25 28 30 29 28 27 27 26 26 28 30 30 30 29 28 27 27 27 28 28 28
44 45 45 44 43 41 40 38 36 34 33 31 29 29 29 29 30 29 28 27 27 28 30 30 30 31 31 31 32 32 32 31 29 28 27 26 26 27 25 25 25 25 24 26 28 29 28 27 26 26 26 27 28 29 29 28 28 27 27 27 27 28 28
44 46 46 45 41 37 34 32 31 30 29 28 28 28 29 30 31 30 29 28 28 28 29 29 30 31 31 31 32 31 31 31 30 29 27 27 27 28 27 26 25 24 23 23 25 27 27 27 26 26 25 26 26 27 28 28 28 28 27 27 27 27 27
45 43 40 38 35 32 30 30 29 28 28 27 28 28 29 30 31 31 30 29 28 29 29 29 30 31 31 31 31 31 31 31 30 29 28 27 27 27 27 27 26 24 23 22 23 25 27 28 28 26 25 25 26 26 27 27 27 28 28 28 27 26 26
47 41 35 31 30 30 31 30 30 29 28 27 26 26 28 29 31 31 31 30 29 29 29 29 30 30 30 30 30 31 31 31 30 30 29 29 29 28 28 28 27 26 24 23 23 24 26 28 29 27 25 25 25 25 26 27 27 27 28 28 27 26 25
Wind_Direction
332 332 331 331 331 330 329 329 329 329 327 326 327 327 326 325 324 323 323 323 323 323 321 321 323 324 324 321 317 315 312 306 303 301 300 299 299 297 295 294 293 289 295 301 306 307 309 313 315 316 317 318 318 318 317 315 315 315 313 312 312 312 312
329 329 329 329 329 328 328 327 327 327 325 324 325 325 324 323 322 321 321 320 321 321 321 321 322 324 323 319 315 314 312 308 308 307 306 306 303 301 301 300 297 294 295 299 305 308 309 312 314 315 317 319 318 318 317 317 318 316 313 314 316 315 312
327 328 328 328 327 327 326 325 325 325 323 322 322 322 321 320 319 319 319 319 320 321 321 320 320 321 321 318 315 314 314 313 313 312 309 307 306 304 304 304 302 298 296 297 302 306 307 309 313 314 316 319 319 316 316 316 316 314 313 317 319 317 314
326 326 326 326 325 324 324 323 323 323 321 320 319 319 318 318 317 317 317 318 320 321 320 318 317 319 320 318 318 317 317 316 314 311 309 307 307 305 304 304 304 302 299 297 299 303 305 307 311 314 317 318 316 314 314 313 313 315 317 318 319 318 316
325 324 324 324 322 321 322 321 321 321 319 317 316 316 316 316 316 316 316 317 318 318 317 316 316 318 319 319 320 320 318 315 312 310 308 307 307 306 305 305 305 306 304 300 297 300 304 307 310 313 316 316 311 309 311 312 314 317 316 315 316 316 315
322 322 321 320 319 319 319 319 320 318 317 315 314 314 315 314 314 315 315 315 315 315 314 315 315 317 319 320 320 319 316 312 310 309 308 307 307 307 307 306 307 308 307 303 300 301 304 307 310 312 313 312 308 306 309 313 316 316 312 313 316 314 313
319 318 317 317 316 316 316 317 318 317 316 314 314 314 314 314 313 313 313 312 312 313 314 315 316 317 319 320 318 316 314 311 309 308 306 306 306 306 306 306 306 307 306 305 304 305 305 306 309 309 308 308 306 304 307 313 316 314 311 314 317 315 313
316 315 314 314 313 313 314 315 317 317 315 313 313 314 313 312 311 310 310 311 312 314 315 316 317 318 317 316 314 313 311 309 307 306 304 304 304 304 303 304 304 304 305 304 304 304 303 304 305 305 304 304 305 305 308 312 314 311 310 313 316 313 311
313 312 311 311 311 311 312 314 317 318 315 313 313 312 310 309 309 309 310 311 312 314 316 317 317 316 315 314 312 310 309 307 305 303 301 301 301 301 301 301 301 301 302 302 301 301 302 300 299 300 302 301 300 303 307 311 312 308 306 310 312 308 309
310 310 310 311 311 311 312 314 317 318 315 313 313 313 312 311 311 312 311 311 312 313 314 315 314 313 313 311 309 308 306 304 303 300 298 297 297 297 298 298 298 298 299 299 298 299 299 296 293 296 299 297 297 301 306 309 310 307 306 309 309 307 310
310 309 310 311 311 312 312 314 318 318 315 314 314 313 312 311 310 310 309 308 308 308 310 311 311 311 310 309 308 306 304 302 301 299 296 294 293 293 293 294 295 296 297 296 294 294 294 291 289 293 296 293 296 302 306 306 305 304 304 306 306 306 310
310 310 311 312 312 312 312 315 319 318 315 313 312 310 308 307 306 306 305 304 303 304 305 307 308 308 308 307 306 305 303 301 300 298 295 293 291 290 290 290 291 292 293 292 290 289 289 288 287 289 292 293 298 305 305 303 302 300 298 299 299 301 307
311 311 312 313 313 313 313 316 318 318 315 313 311 309 307 304 303 302 301 301 301 301 303 304 305 305 305 305 305 304 303 302 300 297 294 292 291 290 290 290 289 289 289 288 286 284 285 288 287 287 291 297 303 308 305 300 299 298 294 293 295 298 302
312 312 313 314 314 314 314 315 317 317 316 314 312 310 306 302 301 300 300 300 301 301 302 304 304 303 303 303 303 303 303 302 300 298 294 291 291 291 292 291 289 289 288 287 285 283 284 288 287 286 292 299 304 305 299 294 294 295 292 292 294 297 301
313 312 314 315 315 314 314 315 317 318 317 315 312 309 305 301 299 299 299 300 301 302 302 303 302 301 300 301 302 302 303 302 301 298 294 292 291 292 292 292 291 292 290 288 286 284 285 288 289 290 294 297 298 294 287 283 284 288 290 294 297 298 300
313 313 315 316 315 314 314 315 317 318 316 314 312 308 304 300 299 298 299 300 301 301 302 301 300 300 299 300 302 303 303 302 300 298 295 293 292 292 292 292 292 293 292 291 291 289 289 290 291 291 290 289 287 283 280 280 281 285 290 295 296 296 298
314 314 315 315 315 314 314 316 318 317 315 314 311 307 304 301 299 298 298 299 299 299 299 299 299 299 299 300 302 304 303 301 299 296 294 293 293 292 291 291 293 295 295 295 293 289 286 284 282 279 276 275 272 270 274 280 283 285 288 291 292 293 295
314 314 314 315 315 314 314 315 317 316 314 312 310 306 303 302 300 300 299 300 299 298 297 297 298 299 299 300 301 302 300 299 297 295 294 294 294 293 293 293 296 296 295 295 293 288 284 281 279 277 275 272 270 268 271 278 283 284 285 286 288 291 293
313 314 314 314 314 313 313 314 315 315 313 311 308 305 303 302 301 300 300 299 297 296 295 295 296 297 297 298 299 299 298 297 295 293 293 294 293 290 291 294 296 295 294 295 294 293 292 290 287 287 285 282 280 277 277 280 283 285 284 283 284 287 288
313 313 313 313 312 312 313 313 314 314 312 309 307 305 303 302 300 300 299 298 296 295 295 296 296 296 296 297 296 296 296 294 293 292 291 291 289 287 290 294 295 293 293 294 293 294 295 295 294 294 293 291 290 288 287 286 285 283 282 282 283 283 281
313 311 311 311 311 311 312 313 313 312 311 309 308 307 305 302 301 301 300 299 297 297 296 297 297 296 296 295 294 294 293 292 292 292 290 287 285 285 288 288 286 285 285 286 288 291 292 293 293 295 295 295 295 294 293 291 287 283 280 280 280 280 278
311 310 309 310 310 311 313 313 312 312 312 312 311 310 307 304 303 303 302 301 300 299 299 299 299 298 298 296 295 293 292 291 290 288 285 283 282 281 281 279 277 278 279 280 283 285 287 287 289 291 293 294 294 294 294 292 288 284 282 280 279 278 276
311 310 310 310 311 313 314 314 314 315 315 315 314 311 308 306 305 305 304 303 302 302 302 302 301 300 300 299 296 295 293 291 289 286 285 284 284 283 283 282 281 281 281 281 282 283 284 285 287 289 290 291 293 293 293 292 290 287 285 281 279 278 277
312 311 311 311 313 315 315 316 316 316 316 315 314 310 307 306 306 305 304 302 302 302 302 302 302 302 301 300 298 297 295 293 291 289 288 288 288 288 286 285 283 283 282 282 283 284 285 285 287 289 289 288 289 289 288 289 289 287 286 282 279 279 278
313 313 313 314 314 315 315 315 316 316 316 314 312 309 307 306 304 303 302 301 300 300 300 300 300 300 300 299 299 298 297 296 294 293 293 292 291 291 289 286 285 284 283 282 283 285 286 286 287 289 288 286 285 284 284 285 286 286 287 284 280 279 279
314 314 314 315 315 314 314 315 316 316 315 314 312 310 309 308 306 304 303 301 301 301 301 301 301 301 301 301 301 301 300 299 299 298 297 296 295 295 294 292 290 289 286 284 284 285 286 287 287 288 288 286 285 283 281 282 284 285 286 285 284 282 280
314 315 316 316 315 314 315 316 317 317 316 314 313 312 311 310 309 308 308 307 307 308 308 307 307 307 308 309 309 309 309 309 309 309 307 305 303 301 299 296 294 292 288 285 284 284 286 287 285 285 286 287 286 284 281 280 282 284 284 284 284 281 280
314 316 317 316 316 316 316 316 317 318 317 316 315 314 313 313 313 314 314 314 314 313 311 310 309 309 310 310 311 311 311 312 313 312 312 311 309 306 304 301 297 292 289 288 289 289 290 289 285 281 283 285 286 283 280 279 279 280 281 282 281 278 278
314 316 317 316 316 317 316 316 318 318 317 316 316 316 316 316 317 318 317 316 315 313 309 308 308 308 308 308 308 307 306 305 305 304 303 305 305 304 303 302 299 294 291 292 294 292 291 291 287 282 281 284 285 283 281 280 278 276 277 278 277 275 276
316 317 317 315 315 316 315 316 318 319 318 317 318 318 319 319 318 317 316 315 314 310 306 306 307 308 308 309 307 305 304 303 303 302 299 299 300 299 297 296 296 295 295 299 302 298 292 291 289 284 280 282 284 284 282 280 277 274 273 274 273 274 275
317 318 317 316 316 317 317 317 318 319 319 320 321 321 320 319 317 316 316 317 315 310 308 309 309 309 310 310 307 305 304 305 305 304 302 299 298 298 296 293 292 291 293 299 305 305 299 295 293 289 284 282 283 284 283 280 277 274 271 270 271 273 274
318 319 319 318 319 319 318 318 318 318 319 320 320 320 319 318 317 318 320 321 317 311 311 312 311 309 310 308 306 306 307 306 304 302 301 298 297 296 295 293 292 292 291 294 301 305 302 299 297 295 292 288 287 286 285 281 278 275 272 270 270 270 272
321 322 321 321 321 320 319 318 317 318 320 321 321 321 320 319 320 322 324 324 320 315 314 314 312 310 310 308 307 308 308 307 305 302 300 298 297 297 296 294 295 296 291 289 296 303 303 301 299 297 296 294 292 291 288 284 280 278 275 272 270 269 271
323 324 324 323 324 323 321 319 319 320 323 325 325 325 324 322 323 325 325 325 322 319 317 316 313 311 311 310 310 310 310 308 307 305 302 300 299 299 299 298 297 295 288 285 291 298 301 302 301 299 297 295 292 291 290 287 283 280 277 274 271 270 270
323 324 324 323 323 323 322 322 324 325 327 329 329 328 326 325 325 327 328 327 325 321 319 317 315 314 313 312 311 311 310 309 307 305 302 301 300 300 300 300 299 296 290 286 287 292 297 301 302 301 298 295 293 290 289 286 283 281 279 277 274 271 269
323 325 326 326 327 327 327 327 327 328 328 329 328 327 327 327 327 328 328 327 325 323 320 318 316 315 315 314 312 312 311 310 308 306 304 303 302 301 299 300 299 297 294 291 289 290 293 297 300 301 300 297 293 290 289 287 283 280 278 276 275 272 269